www.pogodaiklimat.ru

Погода и климат >> Архив погоды >> Великобритания >> Алтнахарра


ПОГОДА на Алтнахарре

  • Прогноз погоды на Алтнахарре
  • Монитор погоды на Алтнахарре

АРХИВ ПОГОДЫ на Алтнахарре

Время (UTC), дата Ветер
(напр.,м/с)
 
Видим.   Явления Облачность Т
(С)
Тd
(С)
f
(%)
Тe
(С)
Тes
(С)
Комфортность P
(гПа)
Po
(гПа)
Тmin
(С)
Tmax
(С)
R
(мм)
R24
(мм)
S
(см)
22 12.06 С 4 14 км слаб. ливневой дождь н/о +7.2 +5.3 88 +4 +4 1020.7 1010.7
23 12.06 С 4 27 км в посл. час дождь н/о +7.2 +4.9 85 +4 +4 1019.4 1009.4
00 13.06 С 5 17 км в посл. час дождь н/о +7.1 +4.5 84 +3 +3 1018.6 1008.6 0.2
01 13.06 СЗ 4 26 км н/о +6.8 +4.0 82 +3 +3 1017.7 1007.7
02 13.06 С 4 25 км н/о +6.8 +4.2 83 +3 +3 1016.5 1006.5
03 13.06 СЗ 3 26 км н/о +6.8 +4.3 84 +4 +4 1015.2 1005.2
04 13.06 СЗ 4 7000 м слаб. ливневой дождь н/о +6.5 +5.3 92 +3 +3 1014.0 1004.0
05 13.06 СЗ 4 12 км слаб. ливневой дождь н/о +6.3 +4.4 88 +2 +2 1013.4 1003.5
06 13.06 С 5 7000 м слаб. дождь н/о +6.3 +5.1 92 +2 +2 1012.6 1002.6 +6.2 0.6
07 13.06 СЗ 5 4200 м сильн. морось н/о +6.6 +5.6 93 +2 +2 1011.6 1001.7
08 13.06 СЗ 6 40 км в посл. час дождь н/о +7.4 +5.7 89 +3 +3 1010.3 1000.4
09 13.06 СЗ 6 35 км в посл. час дождь н/о +8.0 +5.7 85 +4 +4 1009.4 999.5
12 13.06 0 12 км осадки н/о
13 13.06 СЗ 6 6000 м слаб. морось с дождем н/о +7.4 +6.2 92 +3 +3 1006.3 996.4
14 13.06 СЗ 5 6000 м в посл. час дождь н/о +7.6 +6.9 95 +4 +4 1005.2 995.3
15 13.06 СЗ 4 2400 м дождь н/о +8.3 +7.8 97 +5 +5 1004.0 994.2
16 13.06 СЗ 4 28 км в посл. час дождь н/о +9.2 +7.9 92 +6 +6 1003.2 993.4
17 13.06 СЗ 4 5000 м морось н/о +8.9 +8.0 94 +6 +6 1002.5 992.8
18 13.06 СЗ 4 5000 м дождь н/о +8.7 +7.8 94 +5 +5 1002.1 992.4
19 13.06 СЗ 5 11 км слаб. дождь н/о +8.6 +7.8 95 +5 +5 1001.6 991.8
20 13.06 СЗ 5 7000 м слаб. дождь н/о +8.6 +7.9 95 +5 +5 1001.0 991.2
21 13.06 СЗ 4 12 км морось с дождем н/о +8.7 +8.0 95 +5 +5 1000.6 990.9
22 13.06 З 5 17 км слаб. дождь н/о +8.6 +7.7 94 +5 +5 1000.2 990.4
23 13.06 З 5 11 км дождь н/о +8.4 +7.8 96 +5 +5 999.5 989.7
00 14.06 ЮЗ 4 12 км слаб. морось н/о +8.4 +7.7 95 +5 +5 999.0 989.2 2
01 14.06 ЮЗ 2 10 км сильн. дождь н/о +8.5 +7.8 95 +7 +7 998.5 988.7
02 14.06 Ю 4 6000 м дождь н/о +8.7 +7.7 93 +6 +6 998.2 988.4
03 14.06 Ю 5 50 км слаб. дождь н/о +8.4 +7.5 94 +5 +5 998.1 988.4
04 14.06 Ю 5 40 км слаб. дождь н/о +8.3 +7.4 94 +4 +4 998.3 988.5
05 14.06 ЮВ 5 28 км слаб. дождь н/о +8.5 +7.2 92 +5 +5 999.1 989.4
06 14.06 ЮВ 3 40 км в посл. час дождь н/о +9.0 +7.0 87 +6 +6 999.6 989.9 +8.2 9
07 14.06 ЮВ 5 50 км н/о +10.3 +6.8 79 +7 +7 1000.0 990.3
08 14.06 ЮВ 5 50 км н/о +11.1 +6.9 75 +9 +9 1000.5 990.8
09 14.06 ЮВ 8
{13}
50 км н/о +11.6 +5.9 68 +8 +8 1000.9 991.3
10 14.06 ЮВ 7 40 км слаб. морось с дождем н/о +12.7 +6.8 67 +10 +10 1001.4 991.8
11 14.06 В 6 30 км в посл. час дождь н/о +12.3 +6.9 70 +10 +10 1002.0 992.3
12 14.06 ЮВ 7 9000 м сильн. ливневой дождь н/о +10.0 +6.4 78 +6 +6 1002.5 992.7 1
13 14.06 Ю 5 35 км ливневой дождь н/о +11.6 +7.9 78 +9 +9 1002.8 993.1
14 14.06 ЮВ 6 13 км ливневой дождь н/о +12.4 +6.4 67 +10 +10 1003.2 993.5
15 14.06 ЮВ 6 50 км в посл. час дождь н/о +14.8 +5.5 54 +13 +13 1003.1 993.5
16 14.06 ЮВ 8
{13}
30 км н/о +15.5 +4.3 47 +14 +14 1003.7 994.1
17 14.06 Ю 7 50 км н/о +15.3 +5.8 53 +14 +14 1004.2 994.6
18 14.06 В 6 45 км слаб. ливневой дождь н/о +14.2 +6.3 59 +12 +12 1004.9 995.3 +16.4 1
19 14.06 В 6 50 км в посл. час дождь н/о +14.2 +5.5 56 +12 +12 1005.6 996.0
20 14.06 ЮВ 3 50 км н/о +12.9 +5.3 60 +12 +12 1006.5 996.8
21 14.06 ЮЗ 2 35 км н/о +9.8 +6.5 80 +8 +8 1007.3 997.5
22 14.06 З 3 50 км н/о +7.4 +5.7 89 +4 +4 1008.2 998.3
23 14.06 СЗ 2 30 км н/о +4.9 +4.0 94 +3 +3 1009.0 999.0
00 15.06 З 3 35 км н/о +3.8 +3.3 97 0 0 1009.3 999.3 0.2
01 15.06 З 3 50 км н/о +5.1 +4.8 98 +1 +1 1009.3 999.3
02 15.06 ЮЗ 1 35 км н/о +5.4 +5.0 97 +4 +4 1009.2 999.2
03 15.06 С 4 50 км н/о +9.6 +6.8 83 +7 +7 1009.1 999.3
04 15.06 В 6 50 км н/о +11.3 +6.7 73 +9 +9 1009.1 999.4
05 15.06 В 9
{13}
50 км слаб. морось с дождем н/о +12.1 +7.0 71 +9 +9 1009.2 999.5
06 15.06 В 8
{13}
50 км в посл. час дождь н/о +13.7 +6.1 60 +11 +11 1009.0 999.3 +3.5 0.2
07 15.06 В 7
{13}
35 км н/о +13.2 +6.6 64 +11 +11 1009.3 999.6
08 15.06 В 7
{13}
45 км н/о +14.9 +7.2 60 +13 +13 1009.4 999.7
09 15.06 В 9 50 км н/о +15.0 +6.5 57 +13 +13 1009.3 999.7
10 15.06 В 8 40 км н/о +14.9 +8.1 64 +13 +13 1009.4 999.8
11 15.06 В 7 30 км н/о +13.4 +9.7 78 +11 +11 1009.5 999.8
12 15.06 В 9
{13}
35 км н/о +16.1 +11.4 74 +14 +14 1009.3 999.7
13 15.06 В 8 40 км н/о +15.7 +11.0 74 +14 +14 1008.9 999.2
14 15.06 В 8 35 км н/о +15.6 +10.5 72 +14 +14 1008.8 999.2
15 15.06 В 7 50 км н/о +15.8 +10.8 72 +14 +14 1008.7 999.1
16 15.06 В 8 20 км н/о +17.0 +10.7 66 +16 +16 1008.3 998.7
17 15.06 В 8 30 км н/о +17.5 +10.3 63 +16 +16 1007.9 998.4
18 15.06 В 7 35 км н/о +15.6 +10.4 71 +14 +14 1007.9 998.3 +18.2
19 15.06 В 6 22 км н/о +15.1 +10.4 73 +13 +13 1007.8 998.2
20 15.06 СВ 5 45 км н/о +14.1 +10.1 77 +13 +13 1007.7 998.1
21 15.06 В 6 45 км н/о +12.4 +9.3 81 +10 +10 1007.9 998.2
22 15.06 В 5 35 км н/о +13.4 +8.4 72 +12 +12 1007.8 998.1
23 15.06 З 2 30 км н/о +9.6 +7.3 86 +8 +8 1007.9 998.1
00 16.06 СЗ 2 29 км н/о +7.7 +6.8 94 +6 +6 1007.8 997.9
01 16.06 штиль 0 12 км н/о +7.1 +6.7 97 +6 +6 1007.6 997.7
02 16.06 З 2 12 км н/о +7.2 +6.9 98 +5 +5 1007.1 997.2
03 16.06 СЗ 1 8000 м ливневой дождь н/о +7.7 +7.5 99 +7 +7 1006.8 996.9
04 16.06 З 1 7000 м слаб. дождь н/о +7.9 +7.7 99 +7 +7 1006.3 996.5
05 16.06 З 2 10 км слаб. дождь н/о +9.0 +8.8 99 +7 +7 1005.9 996.1
06 16.06 ЮВ 2 13 км в посл. час дождь н/о +9.7 +9.5 99 +8 +8 1005.8 996.0 +6.7 0.4
07 16.06 СЗ 1 40 км н/о +11.3 +10.8 97 +11 +11 1005.8 996.0
08 16.06 Ю 4 40 км н/о +13.9 +9.6 75 +13 +13 1005.9 996.2
09 16.06 Ю 5 40 км н/о +13.5 +7.9 69 +12 +12 1006.0 996.4
10 16.06 Ю 5 35 км н/о +14.9 +9.3 69 +13 +13 1006.0 996.4
11 16.06 Ю 5 50 км н/о +13.9 +7.3 64 +12 +12 1006.6 997.0
12 16.06 Ю 3 35 км н/о +13.7 +7.2 65 +13 +13 1006.8 997.2
13 16.06 ЮЗ 7 30 км н/о +14.7 +5.9 56 +13 +13 1006.9 997.3
14 16.06 Ю 5 45 км н/о +14.5 +5.1 53 +13 +13 1007.1 997.4
15 16.06 Ю 5 40 км в посл. час дождь н/о +15.6 +6.2 54 +15 +15 1007.0 997.4
16 16.06 ЮЗ 4 45 км н/о +14.7 +6.1 56 +14 +14 1007.0 997.4
17 16.06 Ю 6 15 км ливневой дождь н/о +12.1 +7.4 73 +10 +10 1007.5 997.8
18 16.06 ЮВ 2 50 км в посл. час дождь н/о +13.8 +7.2 64 +14 +14 1007.3 997.6 +16.6 0.4
19 16.06 С 1 40 км в посл. час дождь н/о +10.9 +8.5 85 +11 +11 1007.9 998.2
20 16.06 ЮВ 1 50 км н/о +11.5 +8.7 83 +12 +12 1007.5 997.8
21 16.06 СВ 5 50 км н/о +10.4 +8.3 87 +8 +8 1007.6 997.9
22 16.06 Ю 2 50 км н/о +8.9 +6.4 84 +8 +8 1007.4 997.6
23 16.06 З 2 45 км н/о +6.5 +5.7 95 +5 +5 1007.3 997.4
00 17.06 З 2 45 км н/о +5.4 +4.8 96 +3 +3 1006.5 996.5 1
01 17.06 З 1 30 км н/о +5.4 +5.0 97 +4 +4 1005.9 996.0
02 17.06 З 1 50 км н/о +6.0 +5.8 99 +5 +5 1005.4 995.5
03 17.06 З 1 25 км слаб. ливневой дождь н/о +6.6 +6.3 98 +5 +5 1004.7 994.8
04 17.06 СЗ 1 30 км дождь н/о +7.1 +6.8 98 +7 +7 1004.0 994.1
05 17.06 С 1 30 км слаб. дождь н/о +7.6 +7.4 99 +8 +8 1003.5 993.6
06 17.06 З 1 50 км слаб. ливневой дождь н/о +8.4 +8.2 99 +8 +8 1003.4 993.6 +5.2 1
07 17.06 Ю 4 15 км дождь н/о +10.2 +9.6 96 +8 +8 1003.7 993.9
08 17.06 ЮЗ 2 50 км в посл. час дождь н/о +11.0 +10.0 94 +10 +10 1003.9 994.2
09 17.06 ЮЗ 3 40 км н/о +12.3 +8.3 77 +11 +11 1004.1 994.4
10 17.06 ЮЗ 3 50 км н/о +12.9 +7.8 71 +12 +12 1004.4 994.8
11 17.06 ЮЗ 3 45 км н/о +13.0 +8.8 76 +12 +12 1004.5 994.9
12 17.06 З 2 50 км в посл. час дождь н/о +12.9 +9.5 80 +12 +12 1004.6 995.0 2
13 17.06 Ю 4 26 км слаб. ливневой дождь н/о +14.7 +11.2 80 +13 +13 1004.4 994.8
14 17.06 ЮЗ 5 н/о н/о +12.5 +8.7 78 +10 +10 1004.7 995.0
15 17.06 ЮЗ 3 50 км в посл. час дождь н/о +14.3 +8.5 68 +14 +14 1004.3 994.7
16 17.06 ЮЗ 2 45 км слаб. ливневой дождь н/о +13.6 +8.8 73 +13 +13 1004.4 994.8
17 17.06 ЮВ 2 50 км в посл. час дождь н/о +12.6 +10.0 84 +12 +12 1004.5 994.8
18 17.06 Ю 3 16 км ливневой дождь н/о +11.8 +9.2 84 +10 +10 1004.9 995.1 +16.7 4
19 17.06 Ю 4 40 км в посл. час дождь н/о +11.6 +9.3 86 +9 +9 1005.1 995.4
20 17.06 ЮЗ 3 40 км в посл. час дождь н/о +12.2 +8.7 79 +11 +11 1005.7 996.0
21 17.06 Ю 2 50 км в посл. час дождь н/о +11.0 +8.4 84 +10 +10 1006.1 996.4
22 17.06 Ю 2 50 км в посл. час дождь н/о +10.5 +7.8 83 +9 +9 1006.3 996.6
23 17.06 Ю 2 50 км н/о +10.2 +7.8 85 +9 +9 1006.0 996.3
00 18.06 Ю 5 50 км н/о +10.6 +7.0 78 +8 +8 1006.0 996.2 0.8
01 18.06 Ю 3 50 км н/о +10.7 +6.6 76 +9 +9 1005.9 996.2
02 18.06 Ю 2 45 км н/о +10.9 +5.9 71 +10 +10 1005.5 995.8
03 18.06 ЮЗ 1 50 км н/о +9.6 +5.7 77 +9 +9 1004.8 995.0
04 18.06 ЮВ 5 45 км н/о +11.7 +5.5 66 +9 +9 1004.0 994.3
05 18.06 Ю 4 45 км н/о +11.1 +5.8 70 +9 +9 1003.7 994.0
06 18.06 Ю 1 50 км н/о +10.9 +6.4 74 +11 +11 1003.9 994.1 +9.6 0.8
07 18.06 Ю 2 13 км слаб. ливневой дождь н/о +10.5 +7.7 83 +9 +9 1004.0 994.3
08 18.06 ЮВ 6 40 км в посл. час дождь н/о +10.9 +8.2 83 +8 +8 1003.8 994.1
09 18.06 Ю 5 20 км морось с дождем н/о +11.0 +9.7 92 +8 +8 1004.2 994.5
10 18.06 ЮЗ 4 29 км слаб. ливневой дождь н/о +12.1 +8.6 79 +10 +10 1004.4 994.7
11 18.06 Ю 4 50 км слаб. ливневой дождь н/о +12.7 +10.7 88 +11 +11 1004.7 995.1
12 18.06 ЮЗ 8 35 км в посл. час дождь н/о +13.8 +9.6 76 +11 +11 1004.9 995.3 1
13 18.06 ЮЗ 6 27 км н/о +14.3 +8.9 70 +13 +13 1005.3 995.7
14 18.06 ЮЗ 6 21 км н/о +15.3 +9.3 67 +14 +14 1005.6 996.0
15 18.06 ЮЗ 5 20 км слаб. морось с дождем н/о +14.1 +9.4 73 +13 +13 1005.9 996.3
16 18.06 Ю 5 40 км слаб. морось с дождем н/о +13.0 +9.2 78 +11 +11 1006.0 996.3
17 18.06 ЮЗ 5 30 км слаб. морось с дождем н/о +12.6 +8.5 76 +10 +10 1006.5 996.8
18 18.06 Ю 5 45 км в посл. час дождь н/о +13.5 +8.3 71 +12 +12 1006.2 996.5 +15.5 2
19 18.06 ЮЗ 4 50 км н/о +13.2 +8.6 74 +12 +12 1006.2 996.5
20 18.06 ЮЗ 3 50 км н/о +12.8 +7.9 72 +11 +11 1006.3 996.7
21 18.06 ЮВ 2 50 км н/о +12.0 +8.1 77 +11 +11 1006.7 997.0
22 18.06 Ю 3 50 км н/о +11.5 +8.3 81 +10 +10 1006.9 997.1
23 18.06 Ю 3 50 км н/о +11.6 +8.1 79 +10 +10 1006.7 997.0
00 19.06 С 2 50 км н/о +11.4 +8.3 81 +11 +11 1006.4 996.6
01 19.06 З 2 50 км н/о +11.2 +8.0 81 +10 +10 1005.9 996.2
02 19.06 Ю 3 45 км н/о +11.5 +8.1 80 +10 +10 1005.6 995.9
03 19.06 Ю 4 50 км н/о +11.9 +7.6 75 +10 +10 1005.4 995.7
04 19.06 Ю 5 50 км н/о +11.8 +7.5 75 +9 +9 1005.1 995.4
05 19.06 Ю 3 50 км н/о +11.6 +7.5 76 +10 +10 1005.0 995.3
06 19.06 Ю 2 50 км н/о +11.8 +7.6 75 +11 +11 1004.8 995.1 +11.0
07 19.06 Ю 4 50 км н/о +12.5 +7.5 72 +11 +11 1004.7 995.0
08 19.06 ЮВ 2 50 км н/о +13.1 +7.7 70 +12 +12 1004.4 994.8
09 19.06 ЮВ 5 50 км н/о +13.3 +8.3 72 +11 +11 1004.3 994.6
10 19.06 ЮВ 5 35 км в посл. час дождь н/о +15.1 +8.6 65 +14 +14 1003.7 994.1
11 19.06 Ю 3 50 км н/о +14.1 +8.2 68 +13 +13 1003.8 994.2
12 19.06 Ю 5 40 км слаб. ливневой дождь н/о +14.7 +8.6 67 +13 +13 1003.8 994.2 0.0
13 19.06 ЮЗ 3 21 км дождь н/о +13.7 +10.5 81 +13 +13 1003.8 994.2
14 19.06 Ю 4 40 км в посл. час дождь н/о +15.5 +8.1 61 +15 +15 1003.4 993.8
15 19.06 ЮЗ 5 50 км в посл. час дождь н/о +13.7 +7.8 68 +12 +12 1003.7 994.1
17 19.06 ЮЗ 3 50 км слаб. ливневой дождь н/о +14.3 +7.1 62 +13 +13 1002.8 993.2
18 19.06 ЮЗ 5 50 км в посл. час дождь н/о +14.7 +8.4 66 +13 +13 1002.9 993.3 +16.7 0.2
19 19.06 ЮЗ 5 45 км н/о +13.8 +6.7 62 +12 +12 1002.9 993.3
20 19.06 ЮЗ 3 40 км н/о +13.4 +6.8 64 +12 +12 1002.9 993.3

 

Местоположение метеостанции Алтнахарра (Великобритания): широта 58.28 долгота -4.43 высота над уровнем моря 80 м.

В архиве по умолчанию представлена погода на Алтнахарре за последнюю неделю. Архивные данные за месяц целиком и за предыдущие месяцы, начиная с января 2011 года, Вы можете получить, выбрав интересующий диапазон дат из раскрывающегося списка и нажав кнопку "Ввод!".


*Определитесь, кто Вы:
робот инопланетянин человек

Внимание! Время в таблицах - всемирное. Для получения местного времени необходимо прибавить поправку, которая равна 0 ч.

Смотрите также архив погоды в соседних городах и на ближайших метеорологических станциях:

Погода в Тейн-Рендже (Великобритания) (58 км)
Погода на Озере Гласкарнок (Великобритания) (68 км)
Погода в Уике (Великобритания) (81 км)
Погода в Олтбее (Великобритания) (84 км)
Погода в Кинлоссе (Великобритания) (87 км)
Погода на Сул-Скерри (Великобритания) (89 км)
Погода в Лоссимуте (Великобритания) (90 км)
Погода в Сторновее (Великобритания) (111 км)
Погода в Керкуолле (Великобритания) (116 км)
Погода на Перевале Bealach Na Ba (Великобритания) (121 км)

Пояснения к столбцам:

Ветер - указаны скорость ветра в м/с - средняя за 10 мин, порывы в срок и между сроками (в фигурных скобках) и направление, откуда дует ветер: С - северный, СВ - северо-восточный, В - восточный, ЮВ - юго-восточный, Ю - южный, ЮЗ - юго-западный, З - западный, СЗ - северо-западный.
Видимость - горизонтальная дальность видимости в метрах или километрах. При видимости от 1 до 10 км при отсутствии осадков обычно наблюдается дымка, при ухудшении видимости до 1 км и менее - туман. В сухую погоду видимость может ухудшаться дымом, пылью или мглою.
Явления - указаны атмосферные явления, наблюдавшиеся в срок или в последний час перед сроком; фигурными скобками обозначены явления, наблюдавшиеся между сроками (за 1-3 часа до срока); квадратными скобками обозначены град или гололедные отложения с указанием их диаметра в мм.
Облачность - указаны через наклонную черту общая и нижняя облачность в баллах и высота нижней границы облаков в метрах; квадратными скобками обозначены формы облаков: Ci - перистые, Cs - перисто-слоистые, Cc - перисто-кучевые, Ac - высококучевые, As - высокослоистые, Sc - слоисто-кучевые, Ns - слоисто-дождевые, Cu - кучевые, Cb - кучево-дождевые. Подробнее классификацию облаков см. в Атласе облаков (PDF).
T - Температура воздуха - температура, измеренная на высоте 2 м над землей.
Td - Температура точки росы - температура, при понижении до которой содержащийся в воздухе водяной пар достигнет насыщения.
f - Относительная влажность воздуха - влажноcть воздуха, измеренная на высоте 2 м над землей.
Te - Эффективная температура - температура, которую ощущает одетый по сезону человек в тени. Характеристика душности погоды. При расчете учитывается влияние влажности воздуха и скорости ветра на теплоощущения человека.
Tes - Эффективная температура на солнце - температура, которую ощущает человек, с поправкой на солнечный нагрев. Характеристика знойности погоды. Зависит от высоты солнца над горизонтом, облачности и скорости ветра. Ночью, в пасмурную погоду, а также при ветре 12 м/с и более поправка равна нулю.
P - Атмосферное давление - приведенное к уровню моря атмосферное давление.
Po - Атмосферное давление - измеренное на уровне метеостанции атмосферное давление.
Tmin - Минимальная температура - минимум температуры воздуха на высоте 2 м над землей.
Tmax - Максимальная температура - максимум температуры воздуха на высоте 2 м над землей.
R - Количество осадков - Количество выпавших осадков за период времени, мм. При наведении курсора мыши на число - период времени, за который выпало указанное количество осадков.
R24 - Количество осадков - Количество выпавших осадков за 24 часа, мм.
S - Снежный покров - Высота снежного покрова, см. При наведении курсора мыши на число - состояние снежного покрова и степень покрытия местности в баллах.